Location: Unspecified
(48.7670°N, 0.0000°E)
Time: 03:30:29
(UTC+00:00)

Altair - Pass Details

Date: 01 July 2019
Orbit: 1501 x 1683 km, 47.2° (Epoch: 17 July)

Event Time Altitude Azimuth Distance (km) Brightness Sun altitude
Rises 20:51:29 0° 275° (W) 4,716 10.9 -6.3°
Reaches altitude 10° 20:54:30 10° 274° (W) 3,755 10.3 -6.7°
Maximum altitude 21:04:04 80° 190° (S) 1,635 7.6 -7.7°
Drops below altitude 10° 21:14:00 10° 106° (ESE) 3,894 9.1 -8.8°
Enters shadow 21:17:03 - 105° (ESE) 4,855 9.6 -9.1°
Sets 21:17:11 0° 105° (ESE) 4,898 - -9.1°
